GFSFLT1_250_rhum_000.txt.gz
RH
17 17 17 16 17 18 23 26 25 27 32 38 43 54 61 71 70 73 79 73 65 56 54 51 55 58 60 62 60 58 57 80
28 25 27 26 23 24 25 26 26 28 34 44 54 56 57 60 60 61 66 63 58 53 58 72 65 60 58 65 67 67 65 64
32 31 31 29 30 26 23 25 34 44 52 58 68 75 75 71 69 68 63 61 58 55 54 56 71 74 73 77 72 71 68 67
28 26 27 26 22 24 40 51 54 56 64 71 71 68 66 62 58 51 48 53 59 57 57 53 56 62 64 74 77 77 77 76
21 20 19 28 40 48 56 59 70 76 75 69 60 53 57 60 55 55 55 50 47 49 51 56 67 73 74 76 77 80 81 81
26 35 50 58 62 65 74 89 92 73 55 52 49 48 46 48 47 49 50 45 43 46 54 64 64 70 72 76 84 90 81 72
48 62 76 72 75 86 100 93 76 59 52 51 45 43 48 43 45 47 46 51 58 70 74 80 77 73 78 82 77 73 71 63
69 75 78 76 79 78 67 64 59 55 50 46 45 46 50 52 56 53 63 77 90 82 84 87 81 74 77 73 66 64 61 56
66 59 55 51 51 56 58 48 46 49 51 57 67 63 66 80 84 77 86 89 99 96 92 72 71 65 60 50 39 32 25 26
73 57 45 44 46 45 55 62 62 63 75 84 86 90 90 78 80 100 100 100 99 90 73 63 56 46 31 22 16 16 15 14
39 41 48 48 48 48 47 50 65 85 88 86 90 96 96 99 100 100 97 90 81 63 60 55 35 19 14 13 12 12 10 10
51 55 49 54 62 61 65 80 83 90 98 100 100 100 100 100 97 94 93 82 61 57 41 18 14 14 12 10 8 6 6 6
53 49 53 56 58 74 95 94 100 100 100 100 100 100 98 100 95 88 72 54 40 28 13 14 14 11 8 6 6 6 6 7
50 57 62 70 81 95 100 100 100 100 100 98 100 100 95 78 68 55 42 31 21 12 13 11 8 6 6 6 6 7 7 7
67 76 83 95 100 100 100 100 100 100 100 100 96 84 75 54 38 32 26 16 11 12 9 7 6 6 6 6 7 7 7 7
96 99 100 85 98 100 100 100 100 100 95 84 73 50 38 34 25 15 12 11 10 7 6 6 6 6 7 7 7 7 6 6
100 90 88 100 100 100 100 100 92 92 75 63 42 31 29 16 11 11 10 7 6 6 6 6 6 4 4 4 4 4 4 3
84 99 100 100 100 100 100 94 80 62 45 31 26 17 14 13 11 8 6 6 6 6 5 4 3 3 4 4 4 3 3 3
100 99 93 96 99 95 89 68 53 34 24 19 14 14 13 9 7 6 6 6 5 3 3 3 4 4 4 4 4 3 3 4

GFSFLT1_250_rhum_006.txt.gz
RH
17 17 19 21 20 21 20 26 44 37 37 26 29 39 43 44 49 44 54 46 61 48 44 48 50 44 45 49 50 53 55 59
16 23 35 23 25 23 21 20 22 24 37 44 40 39 43 46 40 39 38 40 45 38 38 38 42 44 47 50 49 58 70 64
18 18 20 23 22 24 25 26 37 45 40 39 47 49 46 40 38 40 41 40 42 45 48 53 53 52 53 51 51 47 49 55
17 18 20 20 22 27 25 28 51 53 42 46 50 46 40 40 42 40 41 47 48 55 53 51 60 68 61 56 69 71 53 79
18 18 21 22 25 24 26 30 51 53 48 43 42 40 42 44 42 44 49 58 62 65 77 74 65 65 76 75 60 59 54 64
18 20 20 22 23 26 32 49 56 53 48 45 44 39 43 47 50 53 60 67 71 80 71 64 73 74 76 66 66 67 75 74
17 18 20 23 27 43 60 58 47 46 43 46 47 44 49 62 73 80 87 95 92 90 72 64 64 63 61 65 66 74 81 79
18 18 20 39 63 53 47 42 46 49 46 44 46 54 68 82 91 98 100 82 80 79 70 68 69 73 73 78 97 87 79 58
18 29 53 57 56 41 42 49 48 44 44 47 54 67 80 92 94 84 70 71 69 62 63 64 58 64 73 72 59 47 32 17
59 65 68 60 45 42 48 53 60 62 61 65 68 79 84 100 91 77 64 55 54 57 59 61 57 54 50 38 25 17 15 14
50 45 43 45 47 47 54 59 56 63 73 96 100 100 95 82 65 56 54 57 62 63 51 44 34 31 23 16 14 14 12 12
38 43 46 42 43 50 60 70 72 89 99 97 88 75 72 64 52 51 58 63 67 39 28 23 16 13 13 12 11 9 7 5
43 49 52 54 55 61 58 65 93 100 93 77 64 54 53 51 54 54 51 51 36 22 21 18 15 13 12 9 7 6 5 5
48 53 57 59 53 53 79 98 82 69 73 74 59 54 62 57 53 44 33 23 18 17 16 13 12 10 7 6 5 5 5 4
46 45 42 43 54 83 96 80 83 76 64 64 63 64 60 49 31 24 17 15 14 13 11 9 6 5 5 5 4 3 3 3
38 47 62 82 90 97 100 82 69 63 66 67 55 45 33 29 20 15 13 12 11 9 6 5 5 4 4 4 3 3 3 3
69 81 83 86 88 85 76 66 70 70 72 61 43 28 15 14 12 11 11 8 6 5 5 4 3 3 4 4 3 3 4 4
78 81 91 92 78 71 77 84 79 74 60 36 24 15 12 9 8 6 5 5 4 4 3 3 4 4 4 4 4 4 4 4
86 91 88 81 87 90 93 76 74 59 33 22 12 10 9 8 6 4 4 3 3 3 3 4 4 4 4 4 5 4 3 3

GFSFLT1_250_rhum_009.txt.gz
RH
20 24 20 17 16 28 49 23 32 39 39 24 20 18 26 37 36 36 46 43 38 38 36 38 38 40 42 42 44 48 52 53
20 17 17 16 16 19 22 26 25 20 23 26 24 22 25 31 38 39 39 40 38 36 39 37 39 40 43 47 50 53 53 48
17 15 16 16 18 19 18 20 21 23 25 22 21 28 38 42 46 43 42 41 35 33 34 38 43 45 46 45 38 35 39 45
16 18 17 16 17 18 19 21 23 22 22 27 42 48 48 47 44 42 41 39 38 39 37 38 38 37 42 44 47 50 53 59
19 17 16 17 18 19 20 20 21 21 40 50 46 38 36 36 36 38 38 38 38 41 51 55 52 57 60 56 57 58 60 63
19 20 20 20 21 22 19 18 19 44 52 48 38 38 39 41 42 44 49 52 57 60 57 58 63 68 66 67 73 70 62 64
16 16 17 18 17 16 22 39 54 59 59 50 44 43 51 58 58 57 57 60 67 65 72 68 58 51 54 56 51 49 50 52
15 14 18 34 43 50 52 54 49 43 41 39 36 36 39 46 44 44 41 54 75 84 76 63 56 54 54 50 44 38 30 27
21 30 36 41 46 42 40 40 38 35 36 41 44 51 57 56 82 92 96 98 79 59 58 57 52 46 40 32 24 16 14 12
38 41 38 38 38 36 37 40 46 56 57 57 58 58 60 80 91 91 77 65 58 61 63 56 46 31 22 18 14 12 10 10
47 48 46 43 43 43 42 43 41 43 51 56 69 86 88 84 79 72 65 61 61 61 57 37 22 16 13 11 10 10 9 8
42 39 36 42 46 45 42 42 47 53 64 80 86 84 79 78 77 72 72 62 59 42 28 17 12 10 9 9 8 7 5 4
42 38 44 42 42 42 45 54 74 86 91 95 97 98 84 77 74 58 65 57 32 25 13 9 8 8 8 6 5 4 4 4
43 43 41 44 48 64 73 87 92 96 99 100 90 69 64 57 53 44 35 22 16 13 10 9 8 6 5 5 4 3 3 3
43 43 50 55 64 78 92 99 100 97 83 67 64 62 54 55 48 25 16 11 9 8 8 6 5 4 4 3 3 3 3 3
49 52 58 74 83 80 85 96 90 78 68 64 61 54 55 43 18 12 9 8 8 5 4 4 4 3 4 3 3 3 4 4
57 66 72 72 72 91 85 75 79 76 69 70 60 58 51 20 12 9 8 6 5 4 3 3 3 4 4 4 4 4 4 4
72 80 74 69 81 80 74 75 76 75 78 74 65 51 18 12 9 8 6 5 4 3 4 4 4 4 4 4 4 4 4 4
76 73 74 74 64 72 77 90 86 78 68 59 45 18 12 10 8 6 5 4 4 4 4 4 5 5 4 4 4 4 4 4

GFSFLT1_250_rhum_012.txt.gz
RH
44 78 83 65 31 62 92 96 87 47 39 32 20 19 19 20 22 21 21 30 37 40 41 41 41 44 43 42 41 40 41 38
31 37 44 33 43 68 73 55 16 16 17 19 19 21 22 22 21 25 48 49 41 36 33 30 30 29 29 32 35 34 36 35
31 30 26 44 26 20 16 15 15 16 17 19 22 23 21 20 25 49 53 42 37 33 32 30 29 30 32 32 32 33 36 42
22 23 20 16 15 16 17 17 17 17 18 20 20 18 21 37 56 56 47 45 42 37 30 29 32 32 34 38 43 47 50 51
17 16 16 16 16 16 16 16 16 16 17 18 28 45 52 46 43 39 38 34 32 35 42 41 41 46 46 48 53 49 56 70
18 17 17 15 15 15 15 14 16 24 35 42 42 38 40 41 36 38 43 47 52 58 61 64 59 53 55 53 55 56 57 56
23 26 22 21 19 23 30 40 42 44 47 46 48 50 44 44 47 50 53 56 57 60 59 55 59 55 58 59 56 51 46 41
27 21 26 40 38 35 36 38 41 44 49 54 47 44 40 39 46 50 59 70 82 86 74 60 55 55 52 48 45 38 29 22
33 33 45 51 56 54 54 50 46 40 38 40 44 53 64 64 79 92 82 72 64 54 54 55 51 49 50 41 25 18 12 10
26 26 24 25 32 40 44 46 49 57 61 59 54 50 58 68 62 51 51 57 60 53 50 51 51 40 26 15 9 8 7 7
33 32 35 40 42 43 44 50 52 53 54 54 53 51 46 47 49 59 66 61 63 59 49 48 38 26 12 8 8 7 6 4
41 46 48 48 47 51 53 53 54 53 46 48 56 59 59 62 72 68 61 60 57 46 36 32 17 10 8 7 6 5 4 4
43 46 48 48 52 53 50 47 46 51 62 62 59 58 64 68 64 62 61 49 37 32 23 10 8 8 7 6 4 4 3 3
47 48 48 49 49 48 52 58 69 71 62 67 67 66 71 68 66 55 44 39 36 23 10 8 7 6 5 4 3 3 3 3
52 57 60 58 54 57 60 65 65 68 73 77 75 78 76 65 49 42 37 28 15 9 7 6 5 4 4 4 3 3 3 3
48 51 54 54 60 66 66 68 74 79 81 81 78 68 54 42 38 33 28 12 9 7 6 5 4 4 4 4 3 3 4 4
57 60 62 63 67 62 63 73 85 85 80 68 62 56 46 40 29 24 11 8 7 5 4 4 4 4 4 4 4 4 4 4
60 58 61 66 67 70 80 89 83 76 74 66 69 54 36 27 22 11 8 6 5 4 4 4 4 4 4 4 5 4 4 4
66 63 69 70 72 82 83 81 83 78 76 72 55 41 25 20 12 8 7 5 4 4 4 4 4 4 4 5 4 4 4 4

GFSFLT1_250_rhum_015.txt.gz
RH
42 41 50 68 62 60 100 100 100 100 100 100 100 83 55 26 17 17 17 17 18 19 20 24 40 53 57 51 46 44 43 41
52 44 46 72 58 78 100 100 100 100 97 100 86 60 29 16 16 16 17 18 20 32 44 43 42 40 35 35 35 37 38 38
37 39 38 42 76 86 65 71 75 74 43 32 20 17 17 16 16 17 21 39 47 38 32 32 33 34 33 30 29 28 28 29
29 32 32 34 37 36 32 29 23 19 17 18 17 16 16 18 30 43 41 38 37 36 36 35 33 30 28 28 30 30 31 34
21 21 20 19 19 18 18 17 16 15 15 15 17 19 29 40 37 34 35 37 37 35 33 32 29 32 38 41 45 50 54 48
23 22 21 17 16 16 17 16 15 16 17 22 29 36 36 35 38 41 42 46 49 39 36 42 46 48 51 47 44 44 46 49
32 35 29 26 39 42 28 27 34 37 39 43 44 45 47 50 57 55 45 41 44 55 58 56 50 47 45 46 47 47 43 36
39 38 36 35 35 34 37 41 41 44 49 50 48 48 50 46 41 43 53 62 59 62 61 57 53 42 42 38 39 38 34 32
34 36 40 39 46 49 54 52 50 48 46 46 49 54 53 56 64 64 65 67 59 51 45 41 36 34 34 36 32 27 24 17
43 41 40 45 49 53 52 51 53 52 51 54 63 68 62 55 55 64 56 46 46 43 41 38 36 40 35 30 23 16 10 8
40 41 40 40 42 42 42 46 47 48 52 57 56 55 56 60 61 55 51 51 51 47 45 42 40 29 23 15 9 7 6 6
41 44 45 44 42 44 46 47 50 55 61 61 56 59 59 54 50 48 48 48 52 48 46 35 22 18 11 7 7 6 5 4
40 41 44 42 39 39 45 51 54 54 52 60 63 58 48 53 58 61 62 56 47 38 28 21 15 9 7 7 5 4 3 3
34 35 38 39 42 51 57 57 59 61 64 64 60 56 63 76 70 61 58 41 30 23 19 14 8 7 6 5 4 3 3 3
49 48 51 66 72 64 60 66 65 66 66 64 65 66 74 72 61 53 36 24 21 14 10 8 7 6 4 4 4 3 3 3
78 79 73 73 70 64 65 64 67 67 65 66 68 78 81 70 50 35 27 19 13 10 8 7 6 4 4 4 4 4 4 4
73 72 68 65 61 59 62 67 66 66 68 79 86 83 72 55 42 31 18 13 9 8 7 5 4 4 4 4 4 4 4 4
61 58 56 56 56 63 66 70 61 70 80 86 87 74 66 49 33 20 13 9 8 7 5 4 4 4 5 5 4 4 5 5
52 56 57 60 63 71 69 69 78 82 94 93 70 62 51 35 21 13 8 9 8 6 5 4 4 5 5 5 5 5 5 5